Weather History for El Centro, CA

Change the Weather History Date:

Saturday, March 16, 2013

  Actual Average Record
Temperature  
Mean Temperature 76 °F -  
Max Temperature 96 °F 78 °F 98 °F (2007)
Min Temperature 57 °F 53 °F 46 °F (2005)
Cooling Degree Days 11    
Growing Degree Days 26 (Base 50)    
Moisture  
Dew Point 33 °F    
Average Humidity 23    
Maximum Humidity 51    
Minimum Humidity 8    
Precipitation  
Precipitation 0.00 in - - ()
Sea Level Pressure  
Sea Level Pressure 29.80 in    
Wind  
Wind Speed 8 mph (SSW)    
Max Wind Speed 18 mph    
Max Gust Speed 24 mph    
Visibility 10 miles    
Events      
Averages and records for this station are not official NWS values.
T = Trace of Precipitation, MM = Missing Value Source: NWS Daily Summary

Daily Weather History Graph

Daily Weather History Graph

Search for Another Location

Airport:

Trip Planner

Search our weather history database for the weather conditions in past years. The results will help you decide how hot, cold, wet, or windy it might be!

Date:

Astronomy

Mar. 16, 2013 Rise Set
Actual Time 6:51 AM PDT 6:51 PM PDT
Civil Twilight 6:26 AM PDT 7:16 PM PDT
Nautical Twilight 5:57 AM PDT 7:44 PM PDT
Astronomical Twilight 5:29 AM PDT 8:13 PM PDT
Moon 9:40 AM PDT (3/16) 11:47 PM PDT (3/16)
Length of Visible Light 12h 49m
Length of Day
12h 00m
Waxing Crescent, 24% of the Moon is Illuminated
Mar 16
Waxing Crescent
Mar 19
First Quarter
Mar 27
Full
Apr 2
Last Quarter
Apr 10
New

Hourly Weather History & Observations

Time (PDT) Temp. Dew Point Humidity Pressure Visibility Wind Dir Wind Speed Gust Speed Precip Events Conditions
12:56 AM 70.0 °F 27.0 °F 20% 29.85 in 10.0 mi SW 6.9 mph - N/A   Clear
1:56 AM 66.9 °F 27.0 °F 22% 29.85 in 10.0 mi West 5.8 mph - N/A   Clear
2:56 AM 71.1 °F 24.1 °F 17% 29.83 in 10.0 mi SSW 12.7 mph - N/A   Clear
3:56 AM 66.0 °F 27.0 °F 23% 29.82 in 10.0 mi South 11.5 mph - N/A   Clear
4:56 AM 60.1 °F 42.1 °F 51% 29.82 in 10.0 mi SE 5.8 mph - N/A   Clear
5:56 AM 60.1 °F 41.0 °F 49% 29.81 in 10.0 mi South 6.9 mph - N/A   Scattered Clouds
6:56 AM 57.9 °F 39.9 °F 51% 29.83 in 10.0 mi SSE 6.9 mph - N/A   Mostly Cloudy
7:56 AM 63.0 °F 39.9 °F 43% 29.84 in 10.0 mi South 4.6 mph - N/A   Mostly Cloudy
8:56 AM 66.9 °F 43.0 °F 42% 29.86 in 10.0 mi South 5.8 mph - N/A   Scattered Clouds
9:56 AM 77.0 °F 39.0 °F 25% 29.86 in 10.0 mi Calm Calm - N/A   Partly Cloudy
10:56 AM 84.0 °F 34.0 °F 17% 29.84 in 10.0 mi Variable 4.6 mph - N/A   Clear
11:56 AM 87.1 °F 30.0 °F 13% 29.82 in 10.0 mi NE 5.8 mph - N/A   Clear
12:56 PM 88.0 °F 30.9 °F 13% 29.81 in 10.0 mi Calm Calm - N/A   Clear
1:56 PM 90.0 °F 33.1 °F 13% 29.78 in 10.0 mi East 4.6 mph - N/A   Clear
2:56 PM 93.0 °F 30.0 °F 11% 29.76 in 10.0 mi NE 6.9 mph - N/A   Clear
3:56 PM 93.9 °F 24.1 °F 8% 29.74 in 10.0 mi Variable 3.5 mph - N/A   Clear
4:56 PM 95.0 °F 25.0 °F 8% 29.73 in 10.0 mi Variable 5.8 mph - N/A   Clear
5:56 PM 91.9 °F 28.0 °F 10% 29.73 in 10.0 mi South 6.9 mph - N/A   Clear
6:56 PM 84.0 °F 35.1 °F 17% 29.74 in 10.0 mi SW 16.1 mph - N/A   Clear
7:56 PM 80.1 °F 36.0 °F 20% 29.76 in 10.0 mi SW 18.4 mph 24.2 mph N/A   Clear
8:56 PM 77.0 °F 36.0 °F 23% 29.78 in 10.0 mi WSW 15.0 mph - N/A   Clear
9:56 PM 75.9 °F 35.1 °F 23% 29.79 in 10.0 mi WSW 13.8 mph - N/A   Clear
10:56 PM 73.0 °F 32.0 °F 22% 29.80 in 10.0 mi WSW 11.5 mph - N/A   Clear
11:56 PM 73.0 °F 28.0 °F 19% 29.79 in 10.0 mi WSW 13.8 mph - N/A   Clear